Regional Weather Roundup
Issued by NWS

Home | Current Version | Previous Version | Text Only | Print | Product List | Glossary On
Versions: 1 2 3 4 5 6 7 8 9 10 11 12 13 14 15 16 17 18 19 20 21 22 23 24 25 26 27 28 29 30 31 32 33 34 35 36 37 38 39 40 41 42 43 44 45 46 47 48 49 50
000
ASUS43 KOAX 130610
RWRNE

WEATHER ROUNDUP FOR NEBRASKA
NATIONAL WEATHER SERVICE OMAHA NE
100 AM CDT SUN JUL 13 2014

NOTES: SATELLITE DATA IS BEING USED TO AUGMENT CLOUD COVER ABOVE
       12000 FEET.
       "FAIR" INDICATES FEW OR NO CLOUDS BELOW 12,000 FEET WITH NO
       SIGNIFICANT WEATHER AND/OR OBSTRUCTIONS TO VISIBILITY.

  * THESE STATIONS DO NOT REPORT WEATHER SUCH AS RAIN...SNOW OR FOG.

NEZ001>004-019>022-054>056-130700-
NEBRASKA PANHANDLE

CITY           SKY/WX    TMP DP  RH WIND       PRES   REMARKS
SCOTTSBLUFF    PTCLDY    65  64  97 NW6       30.25R
6HR MIN TEMP:  65; 6HR MAX TEMP:  82; 6HR PCP:  0.01;

ALLIANCE       PTCLDY    65  62  90 NW5       30.23S
6HR MIN TEMP:  65; 6HR MAX TEMP:  82;

CHADRON        PTCLDY    62  59  90 W6        30.22S
6HR MIN TEMP:  61; 6HR MAX TEMP:  83; 6HR PCP: TRACE;

KIMBALL        PTCLDY    62  60  93 CALM      30.30S
SIDNEY         MOCLDY    61  56  83 CALM      30.28R
6HR MIN TEMP:  60; 6HR MAX TEMP:  82;

$$

NEZ057>060-069>072-079>082-130700-
SOUTHWEST NEBRASKA

CITY           SKY/WX    TMP DP  RH WIND       PRES   REMARKS
NORTH PLATTE   CLEAR     65  61  87 CALM      30.15S
6HR MIN TEMP:  63; 6HR MAX TEMP:  83;

IMPERIAL       MOCLDY    68  64  87 N6        30.19R
6HR MIN TEMP:  68; 6HR MAX TEMP:  83;

LEXINGTON      PTCLDY    67  65  95 NW3       30.12S
MCCOOK         PTCLDY    70  66  87 CALM      30.14R
6HR MIN TEMP:  69; 6HR MAX TEMP:  83;

OGALLALA       PTCLDY    64  61  89 CALM      30.20R
$$

NEZ005>010-023>029-035>040-094-130700-
NORTH CENTRAL NEBRASKA

CITY           SKY/WX    TMP DP  RH WIND       PRES   REMARKS
VALENTINE      CLEAR     66  64  93 NW3       30.14F
6HR MIN TEMP:  66; 6HR MAX TEMP:  83;

AINSWORTH      CLEAR     68  63  83 CALM      30.14S
BROKEN BOW     CLEAR     65  63  93 CALM      30.12S
6HR MIN TEMP:  65; 6HR MAX TEMP:  81;

O`NEILL        CLEAR     67  62  85 W3        30.09S
ORD            CLEAR     64  63  96 CALM      30.08S
6HR MIN TEMP:  64; 6HR MAX TEMP:  80;

THEDFORD       CLEAR     69  63  83 CALM      30.17R
$$

NEZ041-046>049-061>064-073>077-083>087-130700-
SOUTH CENTRAL NEBRASKA

CITY           SKY/WX    TMP DP  RH WIND       PRES   REMARKS
GRAND ISLAND   CLEAR     68  65  90 CALM      30.08R
6HR MIN TEMP:  68; 6HR MAX TEMP:  80;

AURORA         PTCLDY    67  67 100 CALM      30.08R
HASTINGS       PTCLDY    70  64  81 CALM      30.08S
6HR MIN TEMP:  69; 6HR MAX TEMP:  80;

HEBRON         MOCLDY    73  70  89 NE6       30.04F THUNDER FOG
HOLDREGE       PTCLDY    67  65  93 N3        30.11R
KEARNEY *      PTCLDY    68  64  88 N6        30.10R
YORK           PTCLDY    68  68 100 CALM      30.07R
$$

NEZ011>018-030>034-042>045-130700-
NORTHEAST NEBRASKA

CITY           SKY/WX    TMP DP  RH WIND       PRES   REMARKS
NORFOLK        CLEAR     67  65  93 W5        30.04S
6HR MIN TEMP:  65; 6HR MAX TEMP:  79;

ALBION         CLEAR     65  63  94 N5        30.07S
BLAIR          CLEAR     68  64  89 CALM      30.03R
TEKAMAH        CLEAR     64  62  93 S3        30.01R
6HR MIN TEMP:  64; 6HR MAX TEMP:  79;

WAYNE          CLEAR     66  65  97 CALM      30.03S
$$

NEZ050>053-065>068-078-088>093-130700-
SOUTHEAST NEBRASKA

CITY           SKY/WX    TMP DP  RH WIND       PRES   REMARKS
LINCOLN        MOCLDY    72  67  84 CALM      30.05S
6HR MIN TEMP:  72; 6HR MAX TEMP:  82; 6HR PCP:  0.03;

OMAHA EPPLEY   PTCLDY    71  66  84 CALM      30.02R
6HR MIN TEMP:  71; 6HR MAX TEMP:  81;

BEATRICE       CLOUDY    68  67  98 CALM      30.03S
FALLS CITY     TSTM      74  71  91 N14       30.01R
6HR MIN TEMP:  75; 6HR MAX TEMP:  93; 6HR PCP: TRACE;

NEBRASKA CITY  CLOUDY    71  71 100 N7        30.03R
PLATTSMOUTH    PTCLDY    70  67  88 CALM      30.03S
$$

NEZ044-045-051>053-067-130700-
OMAHA AREA

CITY           SKY/WX    TMP DP  RH WIND       PRES   REMARKS
OMAHA EPPLEY   PTCLDY    71  66  84 CALM      30.02R
6HR MIN TEMP:  71; 6HR MAX TEMP:  81;

BLAIR          CLEAR     68  64  89 CALM      30.03R
MILLARD        CLEAR     69  67  92 CALM      30.01F
PLATTSMOUTH    PTCLDY    70  67  88 CALM      30.03S
WAHOO          FAIR      67  64  89 CALM      30.04S
$$


USA.gov is the U.S. government's official web portal to all federal, state and local government web resources and services.